Hourly Data Report for October 14, 2016

CORAL HARBOUR A
NUNAVUT

64°11'36.000" N
83°21'34.000" W
62.20 m
2301002
71915
YZS

Download Data

Hourly Data (October 2016)
Hourly Data Report for October 14, 2016
TIME
LST
Temp Definition
°C
Dew Point Definition
°C
Rel Hum Definition
%
Precip. Amount Definition
mm

Wind Dir Definition
10's deg

Wind Spd Definition
km/h
Visibility Definition
km
Stn Press Definition
kPa
Hmdx Definition


Wind Chill Definition


Weather Definition


00:00 -5.2 -6.4 91   6 17 24.1 99.10   -11 Snow
01:00 -6.2 -7.6 90   6 23 24.1 99.13   -14 Snow
02:00 -7.1 -8.6 89   6 23 24.1 99.16   -15 LegendNANA
03:00 -7.8 -9.2 90   6 23 24.1 99.18   -16 LegendNANA
04:00 -7.7 -9.2 89   6 26 24.1 99.20   -16 Mainly Clear
05:00 -7.4 -8.8 90   5 25 24.1 99.23   -15 LegendNANA
06:00 -6.7 -8.2 89   5 23 24.1 99.26   -14 LegendNANA
07:00 -6.9 -8.3 90   4 27 24.1 99.28   -15 Mostly Cloudy
08:00 -7.4 -9.1 88   4 30 24.1 99.31   -16 LegendNANA
09:00 -6.8 -8.8 86   2 26 24.1 99.34   -15 LegendNANA
10:00 -3.7 -6.3 82   3 27 24.1 99.40   -11 Mostly Cloudy
11:00 -4.2 -6.7 83   3 28 24.1 99.42   -12 LegendNANA
12:00 -3.2 -5.7 83   4 29 24.1 99.46   -11 LegendNANA
13:00 -3.1 -6.1 80   3 33 24.1 99.51   -11 Mostly Cloudy
14:00 -3.4 -6.2 81   3 35 24.1 99.54   -11 LegendNANA
15:00 -3.5 -6.6 79   3 37 24.1 99.62   -12 LegendNANA
16:00 -3.6 -6.6 80   3 38 24.1 99.68   -12 Blowing Snow
17:00 -4.3 -7.8 77   3 32 24.1 99.74   -12 Blowing Snow
18:00 -5.5 -8.6 79   36 23 24.1 99.85   -13 LegendNANA
19:00 -5.8 -8.6 81   36 32 24.1 99.88   -14 Mostly Cloudy
20:00 -7.7 -10.6 80   35 30 24.1 99.95   -17 LegendNANA
21:00 -9.8 -12.6 80   35 27 24.1 99.99   -19 LegendNANA
22:00 -10.9 -13.4 82   33 29 24.1 100.03   -21 Clear
23:00 -11.3 -13.6 83   34 26 24.1 100.11   -21 LegendNANA

Notes on Data Quality.

Legend

  • E = Estimated
  • M = Missing
  • NA = Not Available*
  • [empty] = Indicates an unobserved value
Date modified: